EW2271 Weather Reports


Display with metric or nautical units.
time (UTC)temp
F
wind
direction
speed
MPH
gust
MPH
rain 1hr
in
rain 24hr
in
rain mn
in
humidity
%
barometer
mb
20181017115400 43 283 1.0 2.0 0.00 0.05 0.01 82 1013.4
20181017114907 43 88 1.0 2.0 0.00 0.05 0.01 82 1013.4
20181017114418 43 343 1.0 2.0 0.00 0.05 0.01 82 1013.4
20181017113923 43 247 1.0 3.0 0.00 0.05 0.01 82 1013.5
20181017113435 43 245 1.0 4.0 0.00 0.05 0.01 82 1013.5
20181017112839 42 281 1.0 2.0 0.00 0.05 0.01 82 1013.6
20181017112345 42 281 1.0 3.0 0.00 0.05 0.01 81 1013.8
20181017111858 42 274 2.0 3.0 0.00 0.05 0.01 82 1013.8
20181017111407 42 307 1.0 3.0 0.00 0.05 0.01 82 1013.9
20181017110914 42 297 1.0 3.0 0.00 0.05 0.01 83 1013.9
20181017110426 42 268 1.0 3.0 0.00 0.05 0.01 83 1014.0
20181017105851 42 264 2.0 3.0 0.00 0.05 0.01 84 1013.9
20181017105402 42 242 0.0 2.0 0.00 0.05 0.01 84 1013.9
20181017104908 42 242 0.0 3.0 0.00 0.05 0.01 84 1014.0
20181017104414 42 252 1.0 3.0 0.00 0.05 0.01 84 1040.9
20181017103926 42 252 0.0 3.0 0.00 0.05 0.01 84 1014.0
20181017103432 42 279 1.0 2.0 0.00 0.05 0.01 84 1014.1
20181017102849 42 279 1.0 2.0 0.00 0.05 0.01 85 1014.1
20181017102354 42 308 1.0 2.0 0.01 0.05 0.01 85 1014.2
20181017101902 42 297 1.0 2.0 0.01 0.05 0.01 85 1014.3
20181017101414 42 295 1.0 2.0 0.01 0.05 0.01 85 1041.1
20181017100918 42 256 1.0 2.0 0.01 0.05 0.01 85 1014.2
20181017100424 42 269 1.0 2.0 0.01 0.05 0.01 85 1014.2
20181017095855 42 269 1.0 2.0 0.01 0.05 0.01 85 1014.2
20181017095402 42 231 1.0 2.0 0.01 0.05 0.01 85 1014.1
20181017094914 42 309 1.0 2.0 0.01 0.05 0.01 85 1014.1
20181017094421 42 316 0.0 1.0 0.01 0.05 0.01 84 1014.2
20181017093930 42 316 0.0 2.0 0.01 0.05 0.01 84 1014.2
20181017093342 42 29 0.0 1.0 0.01 0.05 0.01 84 1014.3
20181017092848 42 29 0.0 2.0 0.00 0.04 0.00 84 1014.4
20181017091847 42 32 0.0 3.0 0.00 0.04 0.00 84 1014.3
20181017091353 42 230 0.0 3.0 0.00 0.04 0.00 84 1014.3
20181017090840 43 277 1.0 2.0 0.00 0.04 0.00 84 1014.4
20181017090345 43 277 0.0 3.0 0.00 0.04 0.00 84 1014.5
20181017085917 43 272 1.0 3.0 0.00 0.04 0.00 84 1014.6
20181017085427 43 263 0.0 3.0 0.00 0.04 0.00 84 1014.6
20181017084840 43 263 0.0 3.0 0.00 0.04 0.00 84 1014.5
20181017084346 43 265 1.0 3.0 0.00 0.04 0.00 84 1014.5
20181017083852 43 264 0.0 3.0 0.00 0.04 0.00 84 1014.5
20181017083405 43 262 1.0 3.0 0.00 0.04 0.00 84 1014.6
20181017082849 43 210 1.0 3.0 0.00 0.04 0.00 84 1014.6
20181017082355 43 234 0.0 3.0 0.00 0.04 0.00 84 1014.7
20181017081908 43 234 1.0 3.0 0.00 0.04 0.00 84 1014.8
20181017081415 43 287 1.0 3.0 0.00 0.04 0.00 84 1014.8
20181017080925 43 290 1.0 3.0 0.00 0.04 0.00 84 1014.8
20181017080337 43 264 1.0 2.0 0.00 0.04 0.00 84 1014.9
20181017075903 43 243 1.0 2.0 0.00 0.05 0.00 83 1014.9
20181017075417 43 295 0.0 2.0 0.00 0.05 0.00 83 1015.0
20181017074921 43 289 0.0 3.0 0.00 0.05 0.00 83 1015.1
20181017074426 43 289 1.0 3.0 0.00 0.05 0.00 83 1015.0
20181017073839 43 275 1.0 3.0 0.00 0.05 0.00 83 1015.0
20181017073344 43 231 0.0 2.0 0.00 0.05 0.00 82 1015.1
20181017072900 44 330 1.0 2.0 0.00 0.05 0.00 82 1015.0
20181017072405 44 326 0.0 2.0 0.00 0.05 0.00 82 1015.2
20181017071910 44 356 1.0 3.0 0.00 0.05 0.00 81 1015.1
20181017071422 44 299 1.0 3.0 0.00 0.05 0.00 81 1015.0
20181017070927 44 318 0.0 2.0 0.00 0.05 0.00 81 1015.2
20181017070340 44 284 1.0 2.0 0.00 0.05 0.00 81 1015.2
20181017065905 44 239 0.0 1.0 0.00 0.05 0.00 81 1015.2
20181017065410 44 239 0.0 1.0 0.00 0.05 0.00 80 1015.3
20181017064922 44 239 0.0 2.0 0.00 0.05 0.00 80 1015.5
20181017064426 44 239 1.0 2.0 0.00 0.05 0.00 80 1015.5
20181017063843 44 242 0.0 3.0 0.00 0.05 0.00 81 1015.5
20181017063348 45 264 1.0 3.0 0.00 0.05 0.00 80 1015.6
20181017062853 45 245 0.0 1.0 0.00 0.05 0.00 80 1015.6
20181017062406 45 245 0.0 1.0 0.00 0.05 0.00 80 1015.7
20181017061912 45 247 0.0 2.0 0.00 0.05 0.00 80 1015.8
20181017061342 45 13 0.0 5.0 0.00 0.05 0.00 80 1015.8
20181017060843 45 13 1.0 5.0 0.00 0.05 0.00 80 1015.8
20181017060357 45 119 1.0 3.0 0.00 0.05 0.00 79 1015.9
20181017055855 45 225 1.0 3.0 0.00 0.05 0.00 79 1015.9
20181017055355 45 320 1.0 3.0 0.00 0.05 0.00 78 1015.9
20181017054843 45 267 2.0 3.0 0.00 0.05 0.00 79 1016.0
20181017054352 45 283 0.0 2.0 0.00 0.05 0.00 79 1016.1
20181017053837 45 310 1.0 4.0 0.00 0.05 0.00 79 1016.2
20181017053345 45 265 1.0 4.0 0.00 0.05 0.00 79 1016.2
20181017052854 45 310 1.0 5.0 0.00 0.05 0.00 79 1016.2
20181017052336 45 314 1.0 3.0 0.00 0.05 0.00 78 1016.3
20181017051844 45 177 1.0 3.0 0.00 0.05 0.00 79 1016.4
20181017051351 45 301 1.0 3.0 0.00 0.05 0.00 79 1016.5
20181017050900 45 316 1.0 3.0 0.00 0.05 0.00 79 1016.4
20181017050338 45 2 2.0 3.0 0.00 0.05 0.00 78 1016.5
20181017045852 45 297 1.0 3.0 0.00 0.06 0.00 79 1016.5
20181017045355 45 312 1.0 2.0 0.00 0.06 0.00 78 1016.5
20181017044843 45 312 1.0 6.0 0.00 0.06 0.00 78 1016.5
20181017044351 45 326 2.0 6.0 0.00 0.06 0.00 78 1016.5
20181017043853 45 316 1.0 4.0 0.00 0.06 0.00 78 1016.5
20181017043340 45 337 2.0 4.0 0.00 0.06 0.00 78 1016.5
20181017042849 45 356 1.0 7.0 0.00 0.06 0.00 79 1016.6
20181017042357 44 285 2.0 7.0 0.00 0.06 0.00 79 1016.7
20181017041837 44 268 2.0 4.0 0.00 0.06 0.00 79 1016.7
20181017041345 44 253 1.0 3.0 0.00 0.06 0.00 79 1016.8
20181017040853 44 290 2.0 3.0 0.00 0.06 0.00 79 1016.8
20181017040355 44 266 1.0 3.0 0.00 0.06 0.00 79 1016.8
20181017035913 44 314 1.0 3.0 0.00 0.06 0.06 79 1016.9
20181017035418 44 174 1.0 3.0 0.00 0.06 0.06 79 1017.0
20181017034932 44 243 1.0 2.0 0.00 0.06 0.06 79 1016.9
20181017034338 44 243 1.0 2.0 0.01 0.06 0.06 79 1016.9
20181017033925 44 321 0.0 2.0 0.01 0.06 0.06 79 1016.9
20181017033431 44 301 0.0 2.0 0.01 0.06 0.06 79 1016.9
20181017032847 45 301 1.0 3.0 0.01 0.06 0.06 78 1016.9
20181017032354 45 311 1.0 2.0 0.01 0.06 0.06 78 1017.0
20181017031341 45 304 1.0 5.0 0.01 0.06 0.06 78 1016.9
20181017030848 45 256 1.0 4.0 0.01 0.06 0.06 77 1016.9
20181017030359 45 192 1.0 2.0 0.01 0.06 0.06 77 1017.0
20181017025924 45 192 0.0 2.0 0.01 0.07 0.06 77 1017.0
20181017025430 45 192 1.0 3.0 0.01 0.07 0.06 76 1016.9
20181017024839 45 243 0.0 3.0 0.00 0.06 0.05 76 1016.9
20181017024346 45 253 0.0 2.0 0.00 0.06 0.05 75 1017.0
20181017023852 45 253 1.0 4.0 0.00 0.06 0.05 76 1016.9
20181017023402 45 329 0.0 4.0 0.00 0.06 0.05 75 1016.9
20181017022849 45 224 1.0 3.0 0.00 0.06 0.05 75 1017.0
20181017022355 45 196 1.0 3.0 0.00 0.06 0.05 75 1017.1
20181017021840 45 286 1.0 5.0 0.00 0.06 0.05 75 1017.0
20181017021354 45 258 2.0 6.0 0.00 0.06 0.05 75 1017.1
20181017020859 45 244 1.0 6.0 0.00 0.06 0.05 75 1017.2
20181017020403 45 260 1.0 4.0 0.00 0.06 0.05 75 1017.2
20181017015839 46 229 2.0 6.0 0.00 0.06 0.05 75 1017.2
20181017015343 46 251 2.0 6.0 0.00 0.06 0.05 75 1017.1
20181017014855 46 273 1.0 3.0 0.00 0.06 0.05 75 1017.0
20181017014403 46 273 0.0 4.0 0.00 0.06 0.05 75 1017.1
20181017013849 46 256 1.0 5.0 0.00 0.06 0.05 74 1017.1
20181017013355 46 243 1.0 4.0 0.00 0.06 0.05 73 1017.0
20181017012357 46 256 0.0 3.0 0.00 0.06 0.05 72 1017.0
20181017011910 46 250 0.0 3.0 0.00 0.06 0.05 72 1017.0
20181017011420 46 285 1.0 3.0 0.00 0.06 0.05 72 1016.9
20181017010932 46 243 1.0 4.0 0.00 0.06 0.05 71 1016.9
20181017010337 47 295 1.0 4.0 0.00 0.06 0.05 72 1017.0
20181017005901 47 16 0.0 3.0 0.00 0.06 0.05 72 1017.0
20181017005414 47 17 2.0 3.0 0.00 0.06 0.05 71 1017.0
20181017004921 47 256 1.0 3.0 0.00 0.06 0.05 71 1017.0
20181017004426 47 294 1.0 5.0 0.00 0.06 0.05 72 1017.0
20181017003838 47 262 2.0 5.0 0.00 0.06 0.05 72 1017.0
20181017003348 47 299 1.0 4.0 0.00 0.06 0.05 71 1017.1
20181017002902 47 208 1.0 5.0 0.00 0.06 0.05 70 1017.1
20181017002408 47 346 1.0 5.0 0.00 0.06 0.05 70 1017.2
20181017001915 47 218 1.0 5.0 0.00 0.06 0.05 71 1017.1
20181017001426 47 291 1.0 5.0 0.00 0.06 0.05 71 1017.1
20181017000932 47 336 2.0 5.0 0.00 0.06 0.05 70 1017.1
20181017000419 47 322 1.0 5.0 0.00 0.06 0.05 70 1017.0
20181016235842 47 343 1.0 3.0 0.00 0.06 0.05 70 1017.0
20181016235412 47 279 1.0 3.0 0.00 0.06 0.05 71 1016.9
20181016234925 47 270 0.0 6.0 0.00 0.06 0.05 70 1016.9
20181016234431 47 241 2.0 4.0 0.00 0.06 0.05 70 1016.9
20181016233838 47 240 1.0 3.0 0.00 0.06 0.05 70 1016.8
20181016233351 47 230 1.0 3.0 0.00 0.06 0.05 70 1016.8
20181016232859 47 312 1.0 3.0 0.00 0.06 0.05 71 1016.9
20181016232405 47 254 1.0 5.0 0.00 0.06 0.05 69 1016.9
20181016231918 47 341 2.0 5.0 0.00 0.06 0.05 70 1017.0
20181016231423 47 261 1.0 4.0 0.00 0.06 0.05 70 1016.9
20181016230835 47 307 1.0 4.0 0.00 0.06 0.05 70 1016.8
20181016230344 47 262 1.0 4.0 0.00 0.06 0.05 70 1016.9
20181016225909 47 272 1.0 3.0 0.00 0.07 0.05 71 1016.9
20181016225420 47 272 1.0 3.0 0.00 0.07 0.05 71 1016.8
20181016224844 48 275 1.0 2.0 0.00 0.07 0.05 70 1016.7
20181016224356 48 274 0.0 3.0 0.00 0.07 0.05 70 1016.8
20181016223921 48 247 1.0 3.0 0.00 0.07 0.05 70 1017.0
20181016223433 48 261 1.0 3.0 0.00 0.07 0.05 69 1017.0
20181016222858 49 341 0.0 2.0 0.00 0.07 0.05 69 1017.0
20181016222429 49 288 0.0 2.0 0.00 0.07 0.05 68 1017.0
20181016221845 49 288 0.0 1.0 0.00 0.07 0.05 67 1017.0
20181016221351 49 288 0.0 1.0 0.00 0.07 0.05 66 1017.0
20181016220857 49 288 0.0 1.0 0.00 0.07 0.05 67 1016.9
20181016215902 50 288 1.0 2.0 0.00 0.07 0.05 64 1016.9
20181016215347 50 285 0.0 2.0 0.00 0.07 0.05 63 1016.9
20181016214853 50 285 0.0 5.0 0.01 0.07 0.05 62 1016.7
20181016214339 50 247 0.0 1.0 0.01 0.07 0.05 62 1016.7
20181016213849 50 239 0.0 2.0 0.01 0.07 0.05 61 1016.6
20181016213355 51 316 0.0 3.0 0.01 0.07 0.05 61 1016.5
20181016212905 51 314 1.0 3.0 0.01 0.07 0.05 61 1016.6
20181016212416 51 223 0.0 3.0 0.01 0.07 0.05 60 1016.6
20181016211840 51 243 0.0 3.0 0.01 0.07 0.05 58 1016.5
20181016211411 51 330 0.0 2.0 0.01 0.07 0.05 60 1016.6
20181016210923 51 330 0.0 2.0 0.01 0.07 0.05 58 1016.5
20181016210348 51 5 1.0 5.0 0.01 0.07 0.05 58 1016.5
20181016205919 51 35 1.0 2.0 0.01 0.07 0.05 59 1016.6
20181016205343 52 115 0.0 2.0 0.01 0.07 0.05 59 1016.6
20181016204855 52 115 0.0 4.0 0.00 0.06 0.04 56 1016.5
20181016204405 52 266 0.0 5.0 0.00 0.06 0.04 57 1016.6
20181016203910 52 243 2.0 5.0 0.00 0.06 0.04 57 1016.5
20181016203421 52 353 1.0 3.0 0.00 0.06 0.04 56 1016.7
20181016202846 52 18 1.0 5.0 0.00 0.06 0.04 55 1016.6
20181016202400 52 266 2.0 7.0 0.00 0.06 0.04 54 1016.6
20181016201846 52 254 3.0 7.0 0.00 0.06 0.04 52 1016.8
20181016201351 52 337 3.0 7.0 0.00 0.06 0.04 52 1016.9
20181016200904 52 272 2.0 4.0 0.00 0.06 0.04 54 1017.0
20181016200409 52 252 1.0 4.0 0.00 0.06 0.04 55 1017.0
20181016195836 52 306 1.0 4.0 0.00 0.07 0.04 54 1017.0
20181016195348 52 314 1.0 5.0 0.00 0.07 0.04 54 1017.1
20181016194852 52 315 2.0 6.0 0.00 0.07 0.04 53 1017.0
20181016194357 52 247 1.0 7.0 0.00 0.07 0.04 53 1017.0
20181016193910 52 252 1.0 7.0 0.00 0.07 0.04 53 1017.0
20181016193416 52 161 2.0 6.0 0.00 0.07 0.04 53 1017.1
20181016192930 52 316 2.0 4.0 0.00 0.07 0.04 56 1017.2
20181016192336 51 225 1.0 5.0 0.00 0.07 0.04 57 1017.0
20181016191841 51 306 1.0 5.0 0.00 0.07 0.04 56 1017.3
20181016191358 51 312 1.0 4.0 0.00 0.07 0.04 54 1017.2
20181016190904 51 240 2.0 10.0 0.00 0.07 0.04 54 1017.1
20181016190335 51 247 2.0 7.0 0.00 0.07 0.04 55 1017.3
20181016185900 51 247 2.0 4.0 0.00 0.07 0.04 55 1017.4
20181016185406 51 247 1.0 5.0 0.00 0.07 0.04 55 1017.3
20181016184918 51 268 1.0 5.0 0.00 0.07 0.04 55 1017.2
20181016184425 51 181 1.0 6.0 0.00 0.07 0.04 55 1017.3
20181016183837 51 264 3.0 10.0 0.00 0.07 0.04 55 1017.5
20181016183343 51 229 2.0 10.0 0.00 0.07 0.04 55 1017.4
20181016182853 51 201 1.0 7.0 0.00 0.07 0.04 58 1017.3
20181016182403 50 250 2.0 4.0 0.00 0.07 0.04 56 1017.4
20181016181909 50 176 2.0 4.0 0.00 0.07 0.04 59 1017.7
20181016181414 50 312 2.0 4.0 0.00 0.07 0.04 57 1017.7
20181016180926 50 219 2.0 4.0 0.00 0.07 0.04 57 1017.6
20181016180350 50 194 2.0 7.0 0.00 0.07 0.04 57 1017.7
20181016175922 50 326 3.0 7.0 0.00 0.08 0.04 58 1017.9
20181016175348 50 356 1.0 5.0 0.00 0.08 0.04 57 1018.0
20181016174900 50 262 1.0 5.0 0.00 0.08 0.04 58 1017.9
20181016174405 50 322 2.0 4.0 0.00 0.08 0.04 59 1018.0
20181016173922 49 293 1.0 4.0 0.00 0.08 0.04 60 1018.2
20181016173428 49 304 2.0 5.0 0.00 0.08 0.04 59 1018.0
20181016172858 49 316 1.0 4.0 0.01 0.08 0.04 58 1018.2
20181016172405 49 316 2.0 7.0 0.01 0.08 0.04 58 1018.3
20181016171910 49 287 2.0 7.0 0.01 0.08 0.04 58 1018.2
20181016171342 49 264 2.0 6.0 0.01 0.08 0.04 60 1018.5
20181016170856 49 301 3.0 6.0 0.01 0.08 0.04 59 1018.3
20181016170420 49 333 1.0 4.0 0.01 0.08 0.04 60 1018.5
20181016165856 49 353 2.0 8.0 0.01 0.08 0.04 60 1018.6
20181016165401 49 229 1.0 8.0 0.01 0.08 0.04 59 1018.7
20181016164907 49 299 2.0 8.0 0.01 0.08 0.04 61 1018.8
20181016164418 49 252 1.0 4.0 0.01 0.08 0.04 60 1018.9
20181016163924 48 348 2.0 4.0 0.01 0.08 0.04 61 1019.0
20181016163356 48 307 1.0 5.0 0.01 0.08 0.04 62 1019.2
20181016162919 48 223 1.0 3.0 0.00 0.07 0.03 62 1019.1
20181016162432 48 314 1.0 7.0 0.00 0.07 0.03 63 1019.2
20181016161858 48 200 2.0 5.0 0.00 0.07 0.03 62 1019.4
20181016161429 47 206 2.0 4.0 0.00 0.07 0.03 63 1019.4
20181016160838 47 225 2.0 4.0 0.00 0.07 0.03 62 1019.3
20181016160350 47 304 1.0 8.0 0.00 0.07 0.03 64 1019.4
20181016155916 47 224 2.0 8.0 0.00 0.08 0.03 63 1019.6
20181016155429 47 347 3.0 4.0 0.00 0.08 0.03 63 1019.7
20181016154852 47 324 2.0 4.0 0.00 0.08 0.03 64 1019.8
20181016154405 47 301 2.0 6.0 0.00 0.08 0.03 63 1019.8
20181016153931 47 260 1.0 6.0 0.00 0.08 0.03 62 1019.7
20181016153344 47 304 2.0 4.0 0.00 0.08 0.03 64 1019.7
20181016152907 47 239 2.0 7.0 0.00 0.08 0.03 64 1019.8
20181016152424 46 210 2.0 7.0 0.00 0.08 0.03 65 1019.7
20181016151932 46 335 2.0 6.0 0.00 0.08 0.03 66 1019.8
20181016151337 46 325 2.0 4.0 0.00 0.08 0.03 64 1019.7
20181016150909 46 357 2.0 6.0 0.00 0.08 0.03 63 1019.6
20181016150422 46 256 2.0 7.0 0.00 0.08 0.03 63 1019.8
20181016145908 46 315 2.0 7.0 0.00 0.08 0.03 63 1019.7
20181016145421 46 325 3.0 8.0 0.00 0.08 0.03 65 1019.8
20181016144927 46 242 2.0 8.0 0.00 0.08 0.03 64 1019.7
20181016144336 46 289 1.0 4.0 0.00 0.08 0.03 65 1019.8
20181016143849 46 233 2.0 7.0 0.00 0.08 0.03 65 1019.9
20181016143356 46 324 3.0 7.0 0.00 0.08 0.03 65 1019.9
20181016142901 45 304 2.0 6.0 0.00 0.08 0.03 66 1020.0
20181016142414 45 340 3.0 5.0 0.00 0.08 0.03 67 1020.0
20181016141922 45 302 1.0 5.0 0.00 0.08 0.03 66 1019.8
20181016141431 45 261 2.0 5.0 0.00 0.08 0.03 68 1019.8
20181016140856 45 241 3.0 7.0 0.00 0.08 0.03 69 1019.7
20181016140428 45 318 3.0 8.0 0.00 0.08 0.03 68 1019.7
20181016135854 45 306 3.0 8.0 0.00 0.08 0.03 69 1019.6
20181016135407 44 273 2.0 7.0 0.00 0.08 0.03 69 1019.7
20181016134914 44 316 3.0 7.0 0.00 0.08 0.03 69 1019.8
20181016134419 44 328 2.0 4.0 0.00 0.08 0.03 71 1019.8
20181016133932 44 312 1.0 6.0 0.00 0.08 0.03 70 1020.0
20181016133338 44 262 2.0 6.0 0.00 0.08 0.03 69 1020.1
20181016132845 43 318 2.0 4.0 0.00 0.08 0.03 69 1020.1
20181016132358 43 338 3.0 4.0 0.00 0.08 0.03 69 1020.0
20181016131924 43 297 2.0 7.0 0.00 0.08 0.03 70 1019.9
20181016131341 43 247 3.0 7.0 0.00 0.08 0.03 69 1019.8
20181016130847 43 345 1.0 7.0 0.00 0.08 0.03 70 1019.9
20181016130359 43 330 3.0 8.0 0.00 0.08 0.03 69 1019.9
20181016125924 43 270 3.0 7.0 0.00 0.08 0.03 70 1020.0
20181016125347 43 322 2.0 4.0 0.00 0.08 0.03 72 1020.0
20181016124900 43 322 2.0 7.0 0.00 0.08 0.03 71 1019.9
20181016124406 43 311 2.0 7.0 0.00 0.08 0.03 70 1020.0
20181016123919 43 1 1.0 4.0 0.00 0.08 0.03 71 1019.9
20181016123342 42 332 1.0 4.0 0.00 0.08 0.03 71 1020.0
20181016122859 42 347 1.0 4.0 0.00 0.08 0.03 71 1020.1
20181016122405 42 266 2.0 6.0 0.01 0.08 0.03 71 1019.8
20181016121911 42 331 2.0 6.0 0.01 0.08 0.03 71 1019.6
20181016121424 42 305 2.0 5.0 0.01 0.08 0.03 71 1019.3
20181016120850 42 286 3.0 4.0 0.01 0.08 0.03 71 1019.4
20181016120404 42 308 3.0 4.0 0.01 0.08 0.03 71 1019.3
20181016115844 42 318 1.0 5.0 0.01 0.09 0.03 71 1019.3